Salamanca/Mataca, Spain

2:03 AM CET on February 20, 2017 (GMT +0100)
Matacan

Weather History for LESA - October, 2011

Change the Weather History Date:

Wednesday, October 5, 2011

  Actual Average Record
Temperature  
Mean Temperature 62 °F -  
Max Temperature 84 °F - - ()
Min Temperature 41 °F - - ()
Degree Days  
Heating Degree Days 2    
Growing Degree Days 12 (Base 50)    
Moisture  
Dew Point 40 °F    
Average Humidity 52    
Maximum Humidity 93    
Minimum Humidity 15    
Precipitation  
Precipitation 0.00 in 0.05 in - ()
Sea Level Pressure  
Sea Level Pressure 30.31 in    
Wind  
Wind Speed 1 mph ()    
Max Wind Speed 6 mph    
Max Gust Speed -    
Visibility 8.3 miles    
Events      
T = Trace of Precipitation, MM = Missing Value Source: Averaged Metar Reports

Daily Weather History Graph

Daily Weather History Graph

Search for Another Location

Airport or City:

Trip Planner

Search our weather history database for the weather conditions in past years. The results will help you decide how hot, cold, wet, or windy it might be!

Date:

Astronomy

Oct. 05, 2011 Rise Set
Actual Time 8:22 AM CEST 7:58 PM CEST
Civil Twilight 7:54 AM CEST 8:25 PM CEST
Nautical Twilight 7:22 AM CEST 8:57 PM CEST
Astronomical Twilight 6:50 AM CEST 9:29 PM CEST
Moon 4:32 PM CEST (10/5) 1:51 AM CEST (10/5)
Length of Visible Light 12h 30m
Length of Day
11h 35m
Waxing Gibbous, 63% of the Moon is Illuminated
Oct 5
Waxing Gibbous
Oct 12
Full
Oct 20
Last Quarter
Oct 26
New
Nov 2
First Quarter

Hourly Weather History & Observations

Time (CEST) Temp. Dew Point Humidity Pressure Visibility Wind Dir Wind Speed Gust Speed Precip Events Conditions
12:00 AM 48.2 °F 44.6 °F 87% 30.36 in - Variable 1.2 mph - N/A   Clear
1:00 AM 48.2 °F 42.8 °F 82% 30.33 in - Variable 1.2 mph - N/A   Clear
2:00 AM 48 °F 41 °F 70%  in 6 mi Calm Calm - -   Clear
2:00 AM 48.2 °F 41.0 °F 76% 30.33 in - Variable 1.2 mph - N/A   Clear
3:00 AM 46.4 °F 41.0 °F 81% 30.33 in - Calm Calm - N/A   Clear
4:00 AM 44.6 °F 41.0 °F 87% 30.33 in - Variable 1.2 mph - N/A   Clear
5:00 AM 44.6 °F 39.2 °F 81% 30.30 in - Variable 1.2 mph - N/A   Clear
6:00 AM 42.8 °F 39.2 °F 87% 30.33 in - Calm Calm - N/A   Clear
7:00 AM 42.8 °F 39.2 °F 87% 30.33 in - Calm Calm - N/A   Clear
8:00 AM 42 °F 38 °F 79%  in 7 mi Calm Calm - -   Clear
8:00 AM 41.0 °F 37.4 °F 87% 30.33 in - Calm Calm - N/A   Clear
8:30 AM 41.0 °F 39.2 °F 93% 30.33 in - Calm Calm - N/A   Clear
9:00 AM 42.8 °F 39.2 °F 87% 30.33 in - Variable 1.2 mph - N/A   Clear
9:30 AM 46.4 °F 41.0 °F 81% 30.36 in - Calm Calm - N/A   Clear
10:00 AM 51.8 °F 39.2 °F 62% 30.36 in - Variable 1.2 mph - N/A   Clear
10:30 AM 55.4 °F 39.2 °F 54% 30.36 in - Calm Calm - N/A   Clear
11:00 AM 57.2 °F 41.0 °F 55% 30.36 in - Variable 1.2 mph - N/A   Clear
11:30 AM 62.6 °F 39.2 °F 42% 30.36 in - Calm Calm - N/A   Clear
12:00 PM 68.0 °F 39.2 °F 35% 30.36 in - Calm Calm - N/A   Clear
1:00 PM 73.4 °F 39.2 °F 29% 30.33 in - Calm Calm - N/A   Clear
1:30 PM 77.0 °F 39.2 °F 26% 30.33 in - Variable 1.2 mph - N/A   Clear
2:00 PM 81 °F 41 °F 15%  in 12 mi Calm Calm - -  
2:00 PM 78.8 °F 41.0 °F 26% 30.33 in - Calm Calm - N/A   Clear
2:30 PM 80.6 °F 41.0 °F 24% 30.33 in - Variable 1.2 mph - N/A   Clear
3:00 PM 80.6 °F 41.0 °F 24% 30.30 in - Variable 1.2 mph - N/A   Clear
3:30 PM 82.4 °F 42.8 °F 25% 30.30 in - Calm Calm - N/A   Clear
4:00 PM 82.4 °F 39.2 °F 21% 30.27 in - North 4.6 mph - N/A   Clear
4:30 PM 84.2 °F 41.0 °F 22% 30.27 in - Variable 2.3 mph - N/A   Clear
5:00 PM 82.4 °F 41.0 °F 23% 30.27 in - NW 5.8 mph - N/A   Clear
5:30 PM 84.2 °F 39.2 °F 20% 30.27 in - WNW 5.8 mph - N/A   Clear
6:00 PM 82.4 °F 41.0 °F 23% 30.24 in - North 4.6 mph - N/A   Clear
6:30 PM 82.4 °F 39.2 °F 21% 30.24 in - NNW 3.5 mph - N/A   Clear
7:00 PM 80.6 °F 35.6 °F 20% 30.27 in - North 4.6 mph - N/A   Clear
7:30 PM 77.0 °F 39.2 °F 26% 30.27 in - North 3.5 mph - N/A   Clear
9:00 PM 64.4 °F 41.0 °F 42% 30.27 in - Calm Calm - N/A   Clear
10:00 PM 59.0 °F 44.6 °F 59% 30.27 in - Variable 1.2 mph - N/A   Clear
11:00 PM 59.0 °F 42.8 °F 55% 30.30 in - Variable 1.2 mph - N/A   Clear